Regional Weather Roundup
Issued by NWS Goodland, KS

Home | Current Version | Previous Version | Text Only | Print | Product List | Glossary Off
Versions: 1 2 3 4 5 6 7 8 9 10 11 12 13 14 15 16 17 18 19 20 21 22 23 24 25 26 27 28 29 30 31 32 33 34 35 36 37 38 39 40 41 42 43 44 45 46 47 48 49 50

000
ASUS43 KGLD 260808
RWRGLD

GOODLAND FORECAST AREA HOURLY WEATHER ROUNDUP
NATIONAL WEATHER SERVICE GOODLAND KS
100 AM MST WED NOV 26 2014

...OFFICIAL OBSERVATIONS...

CITY           SKY/WX    TMP DP  RH WIND       PRES   REMARKS
GOODLAND KS    FLURRIES  34  33  96 NW16      30.09R
HILL CITY KS   CLOUDY    44  31  60 NW12      30.01R
IMPERIAL NEB   CLOUDY    36  26  67 NW16      30.04R
MCCOOK NEB     CLOUDY    39  30  70 W18G24    30.02R
AKRON CO       LGT SNOW  29  25  85 NW16      30.10R FOG     WCI  17
BURLINGTON CO  LGT SNOW  33  30  88 N16       30.10R FOG
LIMON CO       FLURRIES  28  26  92 NW8       30.11S
$$

...UNOFFICIAL OBSERVATIONS...

CITY           SKY/WX    TMP DP  RH WIND       PRES   REMARKS
COLBY KS       LGT RAIN  36  36 100 NW16G23   30.07S
GOVE KS          N/A     38  32  79 MISG        N/A
NORTON KS      CLOUDY    39  25  56 NW8       29.99S
SHARON SPRINGS   N/A     35  32  89 N17G24      N/A
TRIBUNE KS     PTCLDY    36  34  93 N17G24    30.09R
TRENTON NEB      N/A     36  32  85 NW12        N/A
YUMA CO          N/A     32  30  92 W14         N/A
$$


USA.gov is the U.S. government's official web portal to all federal, state and local government web resources and services.